sat.trackr.live / text

‹ back to catalog

CASSIOPE

NORAD 39265 · 2013-055A

PAYLOAD ACTIVE UNKNOWN

§ Identity

Operator
Country
CA
Launch date
2013-09-29
Launch site
AFWTR
Launch vehicle
Mass (kg)
RCS (m²)
2.06

Purposes: science

External: N2YO · Heavens-Above · Gunter

§ Orbital elements

Epoch: 2026-05-25T02:50:59.313120Z

Period
94.54 min
Inclination
80.9139°
Eccentricity
0.0299485
Mean motion
15.23196256 rev/d
Perigee alt
290.3 km
Apogee alt
702.1 km
Semi-major
6,874.3 km
B*
3.7278e-4
RAAN
94.6867°
Arg perigee
139.7466°
Mean anomaly
222.6371°
Rev number
66,415

§ Raw data

CASSIOPE1 39265U 13055A   26145.11874205  .00033114 -63794-6  37278-3 0  99932 39265  80.9139  94.6867 0299485 139.7466 222.6371 15.23196256664155

JSON: /api/v1/satellites/39265 · /tle

For live sub-satellite position, see the globe view (requires WebGL).

§ Visibility from observer

Set your observer location to see the next 7 days of passes ≥ 10°. The values pass through the URL so the page stays shareable.

No JS? Fill the form by hand. The geolocation button needs JavaScript.

§ Radio — SatNOGS DB

ModeDescriptionDownlinkUplink
CERTO CERTO 1 150.012 MHz
CERTO CERTO 2 400.032 MHz
CERTO CERTO 3 1.067 GHz

3 transmitters · refreshed weekly from db.satnogs.org